Elkins, WV

12:46 AM EST on December 16, 2019 (GMT -0500)
Elkins-Randolph County

Weather History for KEKN - November, 2019

Change the Weather History Date:

Friday, November 22, 2019

  Actual Average Record
Temperature  
Mean Temperature 44 °F 40 °F  
Max Temperature 56 °F 51 °F 73 °F (1931)
Min Temperature 33 °F 29 °F 5 °F (1987)
Degree Days  
Heating Degree Days 20 25  
Month to date heating degree days 584 480  
Since 1 July heating degree days 872 1071  
Cooling Degree Days 0 0  
Month to date cooling degree days 0 0  
Year to date cooling degree days 844 475  
Moisture  
Dew Point 38 °F    
Average Humidity 74    
Maximum Humidity 89    
Minimum Humidity 43    
Precipitation  
Precipitation 0.35 in 0.12 in 1.23 in (2011)
Month to date precipitation 0.94 2.45  
Year to date precipitation 44.46 41.74  
Snow  
Snow 0.00 in 0.20 in 2.40 in (1989)
Month to date snowfall 3.1 2.9  
Since 1 September snowfall 3.1 3.3  
Snow Depth 0.00 in    
Sea Level Pressure  
Sea Level Pressure 30.00 in    
Wind  
Wind Speed 8 mph ()    
Max Wind Speed 23 mph    
Max Gust Speed 31 mph    
Visibility 7.9 miles    
Events Rain    
T = Trace of Precipitation, MM = Missing Value Source: Averaged Metar Reports

Daily Weather History Graph

Daily Weather History Graph

Search for Another Location

Airport or City:

Astronomy

Nov. 22, 2019 Rise Set
Actual Time 7:09 AM EST 5:01 PM EST
Civil Twilight 6:40 AM EST 5:30 PM EST
Nautical Twilight 6:07 AM EST 6:02 PM EST
Astronomical Twilight 5:36 AM EST 6:34 PM EST
Moon 2:17 AM EST (11/22) 2:58 PM EST (11/22)
Length of Visible Light 10h 49m
Length of Day
9h 51m
Waning Crescent, 20% of the Moon is Illuminated
Nov 22
Waning Crescent
Nov 26
New
Dec 4
First Quarter
Dec 12
Full
Dec 18
Last Quarter

Hourly Weather History & Observations

Time (EST) Temp. Windchill Dew Point Humidity Pressure Visibility Wind Dir Wind Speed Gust Speed Precip Events Conditions
12:51 AM 55.9 °F - 39.0 °F 53% 30.00 in 10.0 mi WSW 16.1 mph 29.9 mph N/A   Overcast
1:51 AM 55.0 °F - 39.0 °F 55% 29.98 in 10.0 mi WSW 8.1 mph - N/A   Overcast
2:51 AM 55.0 °F - 37.9 °F 53% 29.96 in 10.0 mi WSW 9.2 mph 19.6 mph N/A   Overcast
3:20 AM 54.0 °F - 41.0 °F 62% 29.95 in 10.0 mi WSW 9.2 mph 20.7 mph 0.00 in Rain Light Rain
3:34 AM 54.0 °F - 41.0 °F 62% 29.94 in 10.0 mi SW 9.2 mph - 0.00 in   Overcast
3:51 AM 54.0 °F - 39.9 °F 59% 29.94 in 10.0 mi WSW 6.9 mph - 0.00 in   Overcast
5:47 AM 53.6 °F - 39.2 °F 58% 29.90 in 10.0 mi WSW 5.8 mph - N/A   Overcast
5:51 AM 54.0 °F - 39.9 °F 59% 29.90 in 10.0 mi SW 9.2 mph - N/A   Overcast
6:51 AM 53.1 °F - 42.1 °F 66% 29.94 in 10.0 mi WSW 12.7 mph 24.2 mph 0.00 in   Overcast
7:51 AM 50.0 °F - 43.0 °F 77% 29.97 in 3.0 mi WSW 12.7 mph - 0.04 in Rain Rain
8:04 AM 48.9 °F - 44.1 °F 83% 29.96 in 2.5 mi WSW 6.9 mph - 0.04 in Rain Rain
8:11 AM 50.0 °F - 44.1 °F 80% 29.95 in 3.0 mi SW 8.1 mph - 0.05 in Rain Rain
8:51 AM 50.0 °F - 44.1 °F 80% 29.95 in 4.0 mi South 10.4 mph 16.1 mph 0.13 in Rain Rain
9:51 AM 51.1 °F - 45.0 °F 80% 29.95 in 5.0 mi WSW 8.1 mph - 0.06 in Rain Rain
10:51 AM 50.0 °F - 45.0 °F 83% 29.96 in 3.0 mi West 8.1 mph 19.6 mph 0.04 in Rain Light Rain
10:59 AM 50.0 °F - 45.0 °F 83% 29.94 in 2.5 mi West 9.2 mph - 0.01 in Rain Light Rain
11:06 AM 50.0 °F - 45.0 °F 83% 29.94 in 4.0 mi WNW 10.4 mph 19.6 mph 0.01 in Rain Light Rain
11:21 AM 46.9 °F - 42.1 °F 83% 29.97 in 2.0 mi NW 15.0 mph 29.9 mph 0.04 in Rain Rain
11:39 AM 46.0 °F 39.3 °F 41.0 °F 83% 29.97 in 3.0 mi NW 16.1 mph 25.3 mph 0.04 in Rain Light Rain
11:51 AM 45.0 °F 37.9 °F 39.9 °F 82% 29.98 in 3.0 mi NW 16.1 mph 25.3 mph 0.04 in Rain Light Rain
12:26 PM 44.1 °F 39.0 °F 39.0 °F 82% 29.99 in 3.0 mi NW 9.2 mph - 0.02 in Rain Rain
12:51 PM 44.1 °F 38.6 °F 39.0 °F 82% 30.01 in 9.0 mi NW 10.4 mph - 0.04 in Rain Light Rain
1:00 PM 43.0 °F 38.2 °F 37.9 °F 82% 29.98 in 7.0 mi NNW 8.1 mph - 0.00 in Rain Light Rain
1:28 PM 44.6 °F 40.7 °F 37.4 °F 76% 29.97 in 10.0 mi NW 6.9 mph - N/A   Overcast
1:51 PM 44.1 °F 40.1 °F 37.9 °F 79% 29.99 in 10.0 mi WNW 6.9 mph - 0.00 in   Overcast
2:34 PM - - - N/A% 29.98 in 10.0 mi West 3.5 mph - N/A   Overcast
2:47 PM - - - N/A% 29.98 in 10.0 mi West 4.6 mph - N/A   Overcast
2:51 PM - - - N/A% 29.98 in 10.0 mi West 4.6 mph - N/A   Overcast
3:51 PM 44.1 °F 39.5 °F 35.1 °F 71% 30.03 in 10.0 mi NW 8.1 mph - N/A   Overcast
4:30 PM 42.1 °F 37.7 °F 32.0 °F 67% 30.02 in 10.0 mi WNW 6.9 mph - N/A   Scattered Clouds
4:51 PM 41.0 °F 37.1 °F 33.1 °F 73% 30.06 in 10.0 mi WNW 5.8 mph - N/A   Clear
5:51 PM 41.0 °F 35.8 °F 33.1 °F 73% 30.08 in 10.0 mi WNW 8.1 mph - N/A   Mostly Cloudy
6:51 PM 39.9 °F 34.5 °F 32.0 °F 73% 30.11 in 10.0 mi NW 8.1 mph - N/A   Overcast
7:08 PM 39.0 °F 34.0 °F 30.9 °F 73% 30.08 in 10.0 mi NW 6.9 mph - N/A   Overcast
7:28 PM 39.0 °F 36.8 °F 32.0 °F 76% 30.07 in 10.0 mi NW 3.5 mph - N/A   Overcast
7:51 PM 39.0 °F 34.8 °F 32.0 °F 76% 30.12 in 10.0 mi NW 5.8 mph - N/A   Overcast
8:51 PM 37.9 °F 33.5 °F 30.9 °F 76% 30.12 in 10.0 mi NNW 5.8 mph - N/A   Overcast
9:51 PM 37.9 °F - 30.9 °F 76% 30.12 in 10.0 mi Calm Calm - N/A   Overcast
10:51 PM 36.0 °F - 32.0 °F 86% 30.12 in 10.0 mi Calm Calm - N/A   Overcast
11:51 PM 34.0 °F 31.0 °F 30.0 °F 85% 30.13 in 10.0 mi South 3.5 mph - N/A   Mostly Cloudy